Theta_e
321 321 320 321 321 320 321 320 322 319 317 315 316 318 318 319 320 322 321 319 318 316 314 311 308 305 304 302 300 299 298 297 296 296 296 296 296 296 296 295 295 295 295 294
324 322 321 321 320 319 319 319 317 317 317 317 317 316 316 318 320 321 320 318 317 315 312 310 307 304 302 301 299 298 297 296 295 295 294 295 295 295 295 295 295 295 294 293
322 319 318 323 320 319 318 318 318 320 318 318 317 316 316 317 319 319 319 317 316 313 310 308 304 302 300 299 298 296 295 294 294 293 293 294 294 294 295 295 294 294 293 292
323 317 326 316 315 315 317 318 317 317 317 316 316 317 317 318 318 318 317 316 314 311 308 304 302 299 299 297 296 295 294 293 293 293 293 293 294 294 295 294 294 292 292 292
329 319 317 316 314 313 314 315 314 315 314 315 317 317 318 317 317 317 316 314 311 308 305 302 299 298 297 296 295 294 293 293 293 293 293 294 294 294 294 293 293 291 291 291
323 331 331 317 315 315 315 315 314 315 315 317 317 320 319 317 316 316 314 312 309 306 302 298 297 297 296 295 294 293 293 293 293 293 293 293 293 292 292 292 292 291 290 290
324 331 324 317 315 315 317 318 316 315 315 316 317 319 318 316 315 314 311 308 304 299 298 298 297 296 295 294 294 293 293 292 293 293 293 292 291 291 291 291 291 290 289 289
328 324 326 314 315 318 319 316 316 316 317 317 318 315 314 315 313 310 307 300 298 297 298 297 296 294 293 293 293 293 292 292 292 292 292 292 291 291 291 291 289 288 288 287
322 323 317 315 315 318 316 316 317 316 316 316 317 314 313 312 309 303 298 297 298 298 297 296 294 293 292 292 292 292 292 292 292 291 290 291 291 291 290 288 288 288 288 289
319 316 315 315 315 315 315 315 315 315 315 315 315 314 311 308 301 298 297 297 297 296 296 294 293 292 292 292 292 292 292 292 291 290 289 288 289 289 289 288 288 288 287 287
317 315 314 315 316 316 316 315 314 313 314 314 314 312 305 300 298 297 296 297 297 295 294 293 292 292 292 291 291 291 291 291 291 290 288 287 287 288 288 288 288 287 287 286
320 316 316 317 315 314 315 315 313 311 310 310 307 302 299 297 296 296 297 297 295 294 293 292 292 292 291 291 291 291 291 291 291 290 288 287 287 287 287 287 286 286 285 283
317 315 315 314 313 312 312 309 307 305 303 301 299 298 297 297 297 296 297 296 294 293 293 292 292 292 292 292 291 291 291 290 290 289 288 288 287 287 287 287 286 286 285 284
313 314 314 312 310 306 303 302 301 300 298 298 298 298 298 298 297 296 295 294 293 292 292 292 292 292 292 292 292 291 291 290 289 289 288 288 288 287 287 287 286 286 286 285
310 310 308 305 304 303 301 300 300 299 298 298 298 297 296 296 295 294 293 293 292 292 292 292 292 292 292 292 292 291 291 290 289 289 288 288 287 287 287 286 286 286 286 285
307 306 304 303 302 301 301 299 298 298 298 297 296 295 294 293 293 292 292 292 292 292 292 292 291 292 292 292 292 291 291 290 289 289 288 288 288 288 288 287 287 287 287 286
306 303 302 301 302 300 299 299 299 298 296 294 293 292 292 291 291 292 292 292 292 291 290 290 290 291 292 292 292 291 290 290 288 288 288 288 288 288 288 288 287 287 287 286
302 301 301 300 299 299 296 294 293 293 292 291 290 290 290 290 291 291 291 291 291 290 290 291 291 291 291 292 292 291 290 288 287 286 286 286 286 286 286 286 287 287 287 287
299 299 298 296 295 294 293 293 292 292 291 290 289 289 290 290 290 289 288 288 289 290 291 291 291 290 292 291 290 289 288 287 286 286 286 286 286 286 286 286 287 287 287 287
296 294 293 293 293 293 292 292 293 292 290 286 286 287 286 286 285 286 287 287 288 289 288 288 287 288 289 289 290 287 287 287 286 286 286 286 286 286 286 286 286 286 286 286
294 293 292 292 291 290 288 287 286 287 286 284 284 284 284 284 285 285 285 286 286 286 285 285 286 286 287 287 288 288 286 286 286 286 285 286 285 285 285 286 286 286 286 285
293 291 291 292 291 290 287 285 285 284 283 283 283 282 281 282 283 284 284 284 284 282 283 283 284 285 286 285 285 286 285 284 283 283 282 282 282 282 282 282 283 283 283 284
293 291 289 287 287 286 285 283 282 283 282 281 281 280 279 280 281 282 282 281 279 281 281 282 282 282 283 283 284 283 282 281 281 280 279 279 279 278 278 278 278 279 279 280
291 290 288 286 285 284 284 282 281 281 280 280 280 279 278 279 279 279 278 278 279 279 279 278 277 277 278 280 280 280 279 278 277 277 277 277 276 276 276 276 276 276 276 276
288 286 285 285 285 283 282 280 280 280 279 279 279 278 277 277 277 277 277 277 277 277 277 275 273 274 275 275 274 274 275 274 273 273 273 274 274 273 273 273 273 273 273 273
287 286 284 281 280 280 279 278 279 279 278 278 277 277 276 276 276 276 276 275 275 274 274 273 272 271 271 272 271 271 271 271 269 269 270 270 270 270 270 269 269 270 270 270
281 281 282 281 279 278 277 277 277 277 277 275 275 276 276 275 275 274 274 274 273 273 272 272 271 270 268 268 269 268 268 268 267 267 267 267 267 267 267 267 267 267 268 268
Wind_Speed
15 5 7 8 8 11 16 17 15 13 16 8 4 10 9 9 11 13 14 15 14 13 14 15 16 15 12 9 8 4 5 7 8 8 10 12 14 14 15 15 17 18 17 17
5 7 8 11 13 13 14 17 18 19 17 16 9 3 8 8 11 14 14 15 14 13 15 15 15 13 11 8 5 3 6 7 8 10 12 14 15 16 17 17 18 18 16 15
6 3 5 6 15 17 17 17 14 16 15 11 2 5 10 9 11 13 13 13 13 12 14 13 12 11 9 6 3 3 6 8 9 11 13 15 17 17 17 18 18 16 15 15
1 1 1 3 1 5 7 13 15 14 13 10 8 4 5 6 10 10 11 12 11 12 11 11 10 9 6 4 2 4 7 9 10 12 15 17 17 17 17 17 17 17 17 15
3 6 8 11 7 2 3 7 6 8 9 2 2 3 8 6 6 9 9 11 12 11 11 12 9 6 3 3 5 6 8 10 12 14 16 17 17 17 17 18 16 15 17 14
3 3 4 3 4 1 1 6 7 4 1 4 5 4 6 7 7 7 10 11 12 13 12 11 8 3 2 6 6 8 10 11 13 15 16 17 16 17 17 16 16 10 11 9
5 3 6 1 4 2 4 3 4 5 2 4 6 6 5 5 7 9 10 11 12 13 12 9 4 1 5 9 9 9 10 12 14 16 17 16 16 14 15 15 11 8 13 12
3 2 6 7 6 2 4 2 5 2 3 4 2 4 2 6 7 10 13 15 13 12 9 5 1 3 8 9 10 9 12 14 15 16 16 16 16 16 16 13 11 9 11 11
7 3 4 7 4 4 3 4 3 5 3 3 3 2 4 7 9 12 14 12 10 7 2 1 3 4 8 10 11 12 13 15 14 15 16 17 17 16 14 11 12 10 11 11
1 3 4 3 3 4 5 6 5 4 6 6 7 5 6 9 10 11 13 9 8 3 3 4 3 5 8 10 11 13 15 15 15 15 16 16 16 15 13 12 12 12 13 13
5 9 3 5 6 6 5 4 3 3 4 4 2 7 10 10 11 11 9 5 2 3 5 6 6 7 9 10 11 13 14 15 16 14 14 15 15 17 16 16 14 12 13 15
3 5 4 7 6 5 3 3 4 5 8 9 13 12 16 13 11 8 4 2 5 7 7 9 9 10 10 10 11 12 15 15 15 15 15 15 16 18 18 19 21 21 19 18
2 3 5 5 6 7 8 9 11 12 13 14 17 18 16 14 11 12 10 8 9 10 10 10 11 11 11 10 11 13 16 17 17 16 16 15 16 17 18 17 17 19 21 20
3 2 5 6 6 11 14 17 17 18 18 17 15 12 10 7 5 7 6 8 9 10 12 13 13 14 13 13 15 15 17 19 19 18 16 17 17 18 18 17 16 17 17 19
7 9 13 12 13 13 15 15 13 11 10 8 7 3 1 2 4 6 7 9 10 12 14 15 16 17 15 16 17 18 19 20 19 20 19 20 21 20 19 18 20 20 19 17
9 11 11 12 12 12 12 11 11 8 6 6 5 4 6 7 8 10 11 12 12 15 18 20 22 21 21 20 21 21 21 21 20 19 20 21 21 21 19 19 20 20 19 18
10 10 11 12 10 9 10 7 9 10 8 7 7 7 7 8 10 11 13 15 16 20 25 26 28 24 22 21 22 22 22 20 19 21 22 22 22 22 21 20 20 21 20 19
10 11 12 12 10 8 9 10 10 10 10 8 8 9 11 12 12 15 16 18 22 26 24 26 28 26 25 25 25 23 20 18 18 19 19 20 20 20 21 21 22 22 21 20
19 15 13 11 11 11 11 10 9 8 9 10 10 11 12 13 14 18 20 19 20 22 23 23 26 28 25 27 27 24 21 16 16 18 19 20 20 21 21 21 21 21 22 22
15 15 15 15 14 12 11 10 8 8 9 12 13 13 15 16 20 20 20 20 20 19 24 26 29 29 28 28 30 20 21 17 16 17 17 19 20 20 20 20 20 20 19 20
14 14 14 14 13 13 13 10 11 10 10 14 13 13 15 19 18 19 21 21 22 22 27 30 28 27 27 29 27 19 15 18 17 15 17 18 17 16 17 18 18 17 17 17
14 13 12 11 10 10 10 11 10 10 11 13 13 13 17 19 20 19 18 21 25 30 30 31 30 32 28 33 24 17 14 12 10 11 12 13 14 16 18 19 19 18 18 19
13 12 12 11 9 7 7 9 10 8 10 12 13 15 18 19 20 23 22 25 30 30 32 31 30 30 29 26 18 10 8 7 7 8 9 10 11 12 13 14 16 17 18 20
11 10 9 7 6 6 6 8 10 8 10 12 14 15 18 21 21 20 24 28 29 28 26 20 24 24 20 15 12 10 9 8 8 8 8 9 10 11 12 14 15 16 17 18
10 9 7 4 4 6 7 9 9 10 12 13 14 16 17 17 19 24 24 24 23 24 21 21 22 21 17 16 15 14 13 11 11 11 11 11 12 13 13 14 15 16 17 17
6 5 6 6 6 6 7 9 10 11 12 14 14 15 16 16 17 18 18 19 18 19 18 18 19 19 17 16 15 14 13 13 13 13 13 13 14 14 15 16 16 17 17 18
8 5 4 3 6 7 8 8 9 10 11 12 13 13 14 14 15 15 16 17 18 17 17 17 17 17 17 16 15 14 14 13 14 15 14 14 14 15 16 17 17 17 18 18
Wind_Direction
259 297 290 286 271 231 236 241 246 262 265 278 222 212 229 215 206 193 193 196 195 193 185 180 181 183 176 177 185 203 270 287 290 290 290 290 288 289 293 296 299 303 304 302
266 244 266 273 261 254 250 247 254 260 263 287 315 210 272 213 214 206 200 201 200 197 186 188 184 180 184 181 188 247 287 291 297 298 295 293 292 289 289 292 297 304 308 294
245 350 306 286 248 250 252 250 253 264 276 356 307 268 263 215 215 213 205 203 199 196 187 189 179 183 183 179 197 281 296 301 303 302 299 298 295 291 290 293 299 307 298 299
215 230 265 265 10 311 291 278 268 261 271 275 297 303 258 224 209 212 207 197 193 190 182 178 170 175 156 193 258 289 301 304 304 304 302 301 297 293 291 298 303 307 293 281
175 217 285 289 173 268 256 291 342 309 287 329 92 283 232 219 221 207 201 192 188 178 177 171 165 157 190 261 288 301 304 302 303 303 301 300 297 299 299 298 303 297 299 283
150 198 226 56 96 132 236 267 39 14 69 165 184 249 60 153 171 178 177 176 166 171 152 152 148 149 320 300 310 302 300 300 300 300 298 297 300 302 301 298 297 309 297 287
198 246 283 5 132 193 239 44 23 340 325 201 223 25 30 130 152 156 156 151 142 143 154 147 131 64 299 296 288 295 299 299 300 299 296 295 299 296 297 297 307 304 282 280
178 196 269 135 139 228 36 60 0 336 1 277 65 45 53 134 139 146 135 125 141 151 137 117 62 282 291 296 305 307 301 300 301 298 294 294 294 297 296 301 296 273 269 271
200 221 104 182 26 64 5 337 341 335 347 293 210 197 160 149 137 124 132 143 142 113 125 170 237 281 296 298 301 300 298 296 296 301 304 297 294 296 294 300 292 283 278 268
277 151 229 248 314 331 342 313 320 309 296 282 261 172 155 128 123 136 130 115 92 111 234 251 270 280 285 296 298 297 294 294 295 299 300 302 298 290 277 263 262 265 267 264
242 284 263 86 51 18 8 11 340 359 327 299 182 134 122 119 118 107 104 116 190 276 280 283 282 281 289 296 296 292 293 292 293 294 296 292 287 285 285 277 279 284 289 294
267 52 337 73 28 1 8 38 56 77 71 66 97 110 113 109 118 124 149 222 249 260 267 269 277 285 290 290 291 296 298 295 295 298 293 290 288 286 276 269 272 274 273 271
24 35 55 76 50 42 74 73 74 84 88 99 101 108 116 129 161 186 205 235 238 256 273 277 278 281 285 292 292 289 291 295 294 295 289 284 282 280 281 282 279 275 268 273
39 189 114 40 86 80 90 90 87 90 97 106 120 132 146 172 185 235 252 265 275 277 275 275 278 281 286 292 296 295 292 289 285 277 275 284 283 277 277 276 282 279 271 275
70 69 86 101 99 95 95 99 98 103 108 117 143 127 40 335 306 305 302 298 292 286 284 285 282 282 287 294 290 291 292 288 282 275 273 277 277 273 272 269 269 269 272 271
97 93 99 104 108 112 109 112 117 133 148 90 65 34 355 339 333 327 319 315 301 294 296 294 291 284 284 283 283 288 290 289 288 274 271 271 271 266 267 263 262 263 263 261
126 122 122 126 124 120 131 106 68 58 62 55 37 21 6 349 328 325 323 316 305 295 292 289 286 286 278 274 275 279 285 289 289 288 281 278 280 278 274 268 263 264 262 259
121 120 117 125 134 110 85 75 66 60 51 35 18 2 349 339 318 311 312 312 307 301 298 292 287 282 277 274 268 269 272 274 281 281 283 287 286 287 287 286 281 272 263 262
121 123 113 94 90 90 82 74 64 64 48 25 7 350 338 335 328 324 322 317 307 299 309 318 316 317 293 274 267 262 262 261 268 273 271 274 273 271 273 274 278 278 275 269
106 101 98 88 82 87 81 61 61 57 33 12 7 3 351 341 332 323 321 310 304 312 321 322 320 313 305 295 280 267 269 268 269 278 285 283 280 281 284 284 281 281 283 285
106 103 100 97 91 82 72 56 48 34 18 15 8 351 336 325 321 322 319 322 326 328 330 325 318 313 312 314 288 268 262 275 275 290 300 301 302 304 310 306 295 290 291 290
106 95 93 103 100 86 60 44 35 24 12 1 351 346 338 329 331 325 324 320 332 332 329 323 321 320 308 313 296 280 284 287 301 305 306 311 322 321 321 325 324 326 331 328
111 108 97 83 75 70 62 38 20 15 3 351 347 346 339 332 333 332 328 334 330 328 328 327 330 328 318 310 290 295 310 317 321 331 319 320 327 333 332 334 334 333 333 329
105 100 97 94 87 62 31 13 360 356 359 346 348 347 344 337 334 334 328 327 329 334 338 354 353 348 347 348 358 2 5 7 2 339 343 343 344 342 341 341 340 341 341 343
108 102 89 77 56 34 13 1 350 353 350 348 346 346 345 341 333 331 331 331 340 343 345 351 354 359 2 5 10 9 12 17 4 355 354 349 347 343 339 338 338 338 337 340
110 94 87 64 46 21 8 359 355 353 349 346 343 343 343 343 343 345 348 349 350 351 353 354 356 360 359 1 3 5 3 3 0 357 353 348 343 340 337 335 334 332 331 331
90 70 70 63 30 12 5 357 351 345 344 346 333 341 342 346 346 351 353 352 352 352 352 352 353 355 358 358 359 360 359 358 358 355 351 346 343 339 337 334 332 330 328 328